Powrót do katalogu

STARLINK-2695

AktywnyŁącznośćVLEO
NORAD 48644·PAYLOAD·🇺🇸 United States

Wystrzelony May 26, 2021 z Cape Canaveral Space Force Station

Loading…

Następne Przeloty (najbliższe 24 godziny)

TLE

ŚwieżeSource: CelesTrak SupGP

Epoka: Sep 14, 2026, 20:24 UTC

1 48644C 21044G   26257.85048611 -.00030566  00000+0 -98293-3 0  2574
2 48644  53.1577 313.7358 0001267  76.6041 210.8097 15.31717231    15

Śledź STARLINK-2695 w czasie rzeczywistym z AllMySat

Download on the App Store